Location: Brno
(49.2000°N, 16.6330°E)
Time: 23:33:23
(UTC+01:00)

ISS - Visible Passes

Search period start: 22 February 2018 00:00
Search period end: 04 March 2018 00:00
Orbit: 402 x 407 km, 51.6° (Epoch: 23 February)

Date Brightness Start Highest point End Pass type
(mag) Time Alt. Az. Time Alt. Az. Time Alt. Az.
27 Feb -1.0 05:33:47 10° S 05:35:45 15° SE 05:37:42 10° E visible
01 Mar -2.0 05:24:29 10° SSW 05:27:20 28° SE 05:30:12 10° E visible
02 Mar -1.5 04:34:05 15° SSE 04:35:12 18° SE 04:37:29 10° E visible
03 Mar -3.2 05:16:44 17° SW 05:18:59 52° SSE 05:22:11 10° ENE visible
